Regional Weather Roundup
Issued by NWS

Home | Current Version | Previous Version | Text Only | Print | Product List | Glossary Off
Versions: 1 2 3 4 5 6 7 8 9 10 11 12 13 14 15 16 17 18 19 20 21 22 23 24 25 26 27 28 29 30 31 32 33 34 35 36 37 38 39 40 41 42 43 44 45 46 47 48 49 50

000
ASUS43 KDTX 100010
RWRMI
MICHIGAN HOURLY REGIONAL WEATHER ROUNDUP
NATIONAL WEATHER SERVICE DETROIT/PONTIAC MI
700 PM EST TUE FEB 09 2016

NOTE: "FAIR" INDICATES FEW OR NO CLOUDS BELOW 12,000 FEET WITH NO
SIGNIFICANT WEATHER AND/OR OBSTRUCTION TO VISIBILITY.

MIZ047>049-052>055-059>063-066>070-074>076-081>083-100100-
SOUTHEAST LOWER MICHIGAN

CITY           SKY/WX    TMP DP  RH WIND       PRES   REMARKS
ADRIAN         CLOUDY    26  16  65 NW17G28   29.73R WCI  13
6HR MIN TEMP:  26; 6HR MAX TEMP:  28;

ALMA           CLOUDY    26  20  77 W14       29.71R WCI  15
6HR MIN TEMP:  26; 6HR MAX TEMP:  29;

ANN ARBOR      CLOUDY    26  18  71 W14       29.69R WCI  14
BAD AXE        LGT SNOW  28  26  93 NW13G20   29.62R WCI  17
CARO           CLOUDY    27  23  86 W9G17     29.65R WCI  17
DETROIT CITY   LGT SNOW  27  22  81 W16G22    29.67R WCI  15
6HR MIN TEMP:  27; 6HR MAX TEMP:  30; 6HR PCP: TRACE;

DETROIT        FLURRIES  27  20  75 W15       29.69R WCI  15
6HR MIN TEMP:  27; 6HR MAX TEMP:  31; 6HR PCP:  0.03;

FLINT          LGT SNOW  28  20  71 W18       29.68R WCI  15
6HR MIN TEMP:  28; 6HR MAX TEMP:  29; 6HR PCP:  0.01;

GROSSE ILE     CLOUDY    27  23  86 W10G18    29.68R FOG     WCI  17
HILLSDALE      FLURRIES  24  19  80 W12G23    29.71R WCI  13
6HR MIN TEMP:  24; 6HR MAX TEMP:  26;

HOWELL         CLOUDY    26  20  79 W13       29.68R WCI  15

CITY           SKY/WX    TMP DP  RH WIND       PRES   REMARKS
JACKSON        CLOUDY    24  14  65 NW18G29   29.71R WCI  10
6HR MIN TEMP:  24; 6HR MAX TEMP:  26;

LAMBERTVILLE   CLOUDY    27  19  71 W9G24     29.73R WCI  18
6HR MIN TEMP:  27; 6HR MAX TEMP:  30;

LANSING        CLOUDY    25  17  72 W13       29.72R WCI  14
6HR MIN TEMP:  25; 6HR MAX TEMP:  27;

LAPEER         FLURRIES  26  23  90 W8G16     29.65R WCI  17
6HR MIN TEMP:  26; 6HR MAX TEMP:  28;

MASON          CLOUDY    25  18  76 W13G21    29.71R WCI  13
MONROE         LGT SNOW  27  22  82 W14G21    29.70R WCI  16
6HR MIN TEMP:  27; 6HR MAX TEMP:  31;

MT. CLEMENS    LGT SNOW  28  24  84 W15       29.63R WCI  16
6HR MIN TEMP:  28; 6HR MAX TEMP:  29; 6HR PCP:  0.04;

PONTIAC        LGT SNOW  25  20  81 W18       29.65R WCI  11
6HR MIN TEMP:  25; 6HR MAX TEMP:  27; 6HR PCP: TRACE;

PORT HOPE        N/A     29  27  92 NW22G29   29.58R WCI  15
6HR MIN TEMP:  29; 6HR MAX TEMP:  30; 6HR PCP:  0.12;

PORT HURON     LGT SNOW  27  25  93 W8G18     29.63R WCI  18
TRI CITIES     LGT SNOW  27  20  75 W18       29.69R WCI  14
6HR MIN TEMP:  27; 6HR MAX TEMP:  30; 6HR PCP:  0.01;

MIDLAND        FLURRIES  26  18  72 NW14G21   29.68R WCI  14
6HR MIN TEMP:  26; 6HR MAX TEMP:  29;

TROY           LGT SNOW  28  24  86 W15       29.68R WCI  17
SAGINAW HB     LGT SNOW  28  25  86 W13       29.68R VSB 3/4 WCI  18
$$
MIZ043>046-050>051-056>058-064>065-071>073-077>080-100100-
SOUTHWEST LOWER MICHIGAN

CITY           SKY/WX    TMP DP  RH WIND       PRES   REMARKS
BATTLE CREEK   FLURRIES  24  17  74 NW16G25   29.76R WCI  11
6HR MIN TEMP:  24; 6HR MAX TEMP:  26; 6HR PCP: TRACE;

BENTON HARBOR  LGT SNOW  23  18  81 NW13G20   29.84R VSB 1   WCI  11
6HR MIN TEMP:  23; 6HR MAX TEMP:  25; 6HR PCP:  0.01;

BIG RAPIDS     FLURRIES  23  17  78 NW9G17    29.72R WCI  13
6HR MIN TEMP:  23; 6HR MAX TEMP:  25;

COLDWATER      FLURRIES  24  19  81 W17G23    29.76R WCI  11
6HR MIN TEMP:  24; 6HR MAX TEMP:  28;

FREMONT        FLURRIES  22  18  83 NW17G24   29.77R WCI   8
HOLLAND        LGT SNOW  24  19  81 NW8       29.81R WCI  15
6HR MIN TEMP:  24; 6HR MAX TEMP:  27; 6HR PCP:  0.04;

GRAND RAPIDS   FLURRIES  24  18  77 NW14      29.76R WCI  12
6HR MIN TEMP:  24; 6HR MAX TEMP:  27; 6HR PCP: TRACE;

IONIA          CLOUDY    25  18  74 W15G23    29.72R WCI  12
6HR MIN TEMP:  25; 6HR MAX TEMP:  27;

KALAMAZOO      FLURRIES  24  17  74 NW14G21   29.78R WCI  12
6HR MIN TEMP:  24; 6HR MAX TEMP:  27; 6HR PCP: TRACE;

LUDINGTON      LGT SNOW  22  18  84 NW16G25   29.81R WCI   8
6HR MIN TEMP:  22; 6HR MAX TEMP:  24;

MARSHALL       FLURRIES  25  18  74 W12       29.74R WCI  14
6HR MIN TEMP:  25; 6HR MAX TEMP:  27;

MOUNT PLEASANT CLOUDY    26  16  65 W10G22    29.70R WCI  16
MUSKEGON       FLURRIES  24  15  68 NW16G24   29.81R WCI  11
6HR MIN TEMP:  24; 6HR MAX TEMP:  27; 6HR PCP: TRACE;

SOUTH HAVEN    FLURRIES  24  18  78 NW14G23   29.82R WCI  12
$$
MIZ016>042-100100-
NORTHERN LOWER MICHIGAN

CITY           SKY/WX    TMP DP  RH WIND       PRES   REMARKS
ALPENA         LGT SNOW  24  19  81 NW12G20   29.64R WCI  13
6HR MIN TEMP:  24; 6HR MAX TEMP:  29; 6HR PCP:  0.04;

BEAVER ISLAND  LGT SNOW  19  14  81 N12G26    29.74R WCI   7
6HR MIN TEMP:  19; 6HR MAX TEMP:  25;

BELLAIRE       LGT SNOW  23  20  89 NW5       29.74R WCI  16
6HR MIN TEMP:  23; 6HR MAX TEMP:  27;

CADILLAC       FLURRIES  22  15  76 NW17G25   29.68R WCI   7
CHARLEVOIX     LGT SNOW  22  19  87 N14G23    29.76R WCI   9
FRANKFORT      LGT SNOW  22  17  80 NW15G26   29.79R WCI   9
GAYLORD        LGT SNOW  19  14  81 NW8G17    29.65R WCI   9
6HR MIN TEMP:  19; 6HR MAX TEMP:  26; 6HR PCP: TRACE;

GRAYLING       FLURRIES  21  16  79 NW12G20   29.67R WCI   9
6HR MIN TEMP:  21; 6HR MAX TEMP:  26;

HARBOR SPRINGS LGT SNOW  19  14  79 NW10      29.71R WCI   8
HOUGHTON LAKE  CLOUDY    23  17  78 NW15      29.66R WCI  10
6HR MIN TEMP:  23; 6HR MAX TEMP:  25; 6HR PCP:  0.01;

MANISTEE       CLOUDY    21  14  73 NW17G26   29.79R WCI   7
OSCODA         LGT SNOW  25  21  85 NW15      29.62R WCI  13
6HR MIN TEMP:  25; 6HR MAX TEMP:  30;

PELLSTON       LGT SNOW  18  13  80 NW21G29   29.71R WCI   1
6HR MIN TEMP:  18; 6HR MAX TEMP:  24; 6HR PCP: TRACE;

ROGERS CITY    LGT SNOW  24  20  87 NW12G20   29.66R WCI  12
TRAVERSE CITY  LGT SNOW  23  17  78 NW14G21   29.74R WCI  11
6HR MIN TEMP:  23; 6HR MAX TEMP:  26; 6HR PCP: TRACE;

$$
MIZ007>008-015-100100-
EASTERN UPPER MICHIGAN

CITY           SKY/WX    TMP DP  RH WIND       PRES   REMARKS
KINROSS        CLOUDY    19  18  93 N10       29.67R WCI   8
6HR MIN TEMP:  19; 6HR MAX TEMP:  27;

MACKINAC ISLAN FLURRIES  18  13  81 NW15G24   29.69R WCI   4
6HR MIN TEMP:  18; 6HR MAX TEMP:  25;

NEWBERRY       LGT SNOW  15  12  86 N15G21    29.72R WCI   0
6HR MIN TEMP:  15; 6HR MAX TEMP:  20;

S. S. MARIE    CLOUDY    19  10  68 N8G17     29.68R WCI   9
6HR MIN TEMP:  19; 6HR MAX TEMP:  27; 6HR PCP: TRACE;

$$
MIZ004>006-011>014-085-100100-
CENTRAL UPPER MICHIGAN

CITY           SKY/WX    TMP DP  RH WIND       PRES   REMARKS
MANISTIQUE     LGT SNOW  17  12  81 N17G28    29.75R WCI   1
6HR MIN TEMP:  17; 6HR MAX TEMP:  22;

ESCANABA       CLOUDY    16   7  67 NW17      29.83S WCI   0
6HR MIN TEMP:  16; 6HR MAX TEMP:  19;

MENOMINEE      CLOUDY    14   3  62 NW12G24   29.88R WCI   0
6HR MIN TEMP:  14; 6HR MAX TEMP:  18;

SAWYER-GWINN   LGT SNOW  10   9  92 N22G30    29.82R VSB 1   WCI  -9
$$
MIZ001>003-009>011-084-100100-
WESTERN UPPER MICHIGAN

CITY           SKY/WX    TMP DP  RH WIND       PRES   REMARKS
IRON MOUNTAIN  CLOUDY    10   2  69 NW20G26   29.87R BLWGSNOWWCI  -9
6HR MIN TEMP:  11; 6HR MAX TEMP:  14; 6HR PCP: TRACE;

HOUGHTON       LGT SNOW  10   3  73 N13       29.94R WCI  -5
6HR MIN TEMP:  10; 6HR MAX TEMP:  11; 6HR PCP: TRACE;

COPPER HARBOR    N/A     15  11  83 NE25G38   29.95R WCI  -4
6HR MIN TEMP:  14; 6HR MAX TEMP:  16;

IRONWOOD       CLOUDY    10   3  72 N12       29.97R WCI  -4
6HR MIN TEMP:   9; 6HR MAX TEMP:  10;

$$

ABBREVIATIONS USED IN REMARKS
   TC - TEMPERATURE IN CELSIUS
  WCI - WIND CHILL INDEX
   HX - HEAT INDEX
  VSB - VISIBILITY




USA.gov is the U.S. government's official web portal to all federal, state and local government web resources and services.